CDT,Max TemperatureF,Mean TemperatureF,Min TemperatureF,Max Dew PointF,MeanDew PointF,Min DewpointF,Max Humidity, Mean Humidity, Min Humidity, Max Sea Level PressureIn, Mean Sea Level PressureIn, Min Sea Level PressureIn, Max VisibilityMiles, Mean VisibilityMiles, Min VisibilityMiles, Max Wind SpeedMPH, Mean Wind SpeedMPH, Max Gust SpeedMPH,PrecipitationIn, CloudCover, Events, WindDirDegrees
2012-10-1,85,72,58,58,55,52,90,63,34,29.86,29.82,29.78,10,10,10,20,8,25,0.00,0,,306
2012-10-2,82,73,63,60,56,51,81,61,35,29.96,29.90,29.83,10,10,10,14,6,18,T,0,Rain,326
2012-10-3,85,73,60,59,56,52,87,59,32,30.03,29.98,29.95,10,10,10,14,5,31,0.00,0,,156
2012-10-4,90,78,65,70,65,60,84,69,49,30.10,30.07,30.03,10,10,10,22,11,29,0.00,2,,142
2012-10-5,89,80,70,70,68,66,100,76,46,30.11,30.05,29.95,10,10,7,16,6,21,0.00,2,,161
2012-10-6,77,67,56,68,60,50,90,73,57,30.13,30.05,29.99,10,10,9,21,10,30,0.00,5,,17
2012-10-7,63,58,52,48,43,40,77,62,48,30.24,30.18,30.13,10,10,10,18,12,31,0.00,8,,18
2012-10-8,70,60,50,52,47,41,89,70,49,30.26,30.18,30.09,10,10,10,12,5,28,0.00,5,Rain,34
2012-10-9,85,71,57,67,60,52,84,70,55,30.09,30.02,29.91,10,10,10,18,9,28,0.00,6,,165
2012-10-10,89,78,67,72,69,66,94,77,49,30.13,30.06,29.99,10,10,6,21,4,25,0.00,4,,138
2012-10-11,89,80,70,74,70,66,88,72,55,30.15,30.10,30.06,10,10,2,21,8,26,0.21,4,Rain-Thunderstorm,156
2012-10-12,89,80,70,72,68,64,93,70,46,30.18,30.12,30.07,10,9,3,14,7,18,0.01,2,,146
2012-10-13,86,78,70,72,70,67,100,78,55,30.09,30.03,29.91,10,9,5,22,11,30,0.13,4,Rain-Thunderstorm,164
2012-10-14,87,77,66,73,68,57,93,71,48,30.07,30.01,29.92,10,9,0,29,8,35,1.03,5,Fog-Rain-Thunderstorm,242
2012-10-15,82,71,60,58,54,46,90,60,30,30.11,30.04,29.98,10,10,10,10,3,13,0.00,0,,34
2012-10-16,70,65,59,65,60,55,100,87,73,29.98,29.88,29.78,10,9,5,15,6,18,0.44,4,Rain,165
2012-10-17,90,76,62,72,66,58,100,76,52,29.78,29.71,29.59,10,10,9,22,7,28,0.00,4,,187
2012-10-18,79,70,60,58,49,40,63,47,30,29.99,29.89,29.75,10,10,10,18,9,24,0.00,2,,35
2012-10-19,82,66,50,50,42,32,77,47,17,30.04,29.97,29.92,10,10,9,10,2,17,0.00,0,,302
2012-10-20,86,71,56,70,61,45,86,70,54,29.94,29.88,29.80,10,10,10,21,10,25,0.00,2,,169
2012-10-21,90,82,73,73,71,68,87,69,50,29.97,29.90,29.86,10,10,9,22,11,28,0.00,6,,170
2012-10-22,88,80,71,72,69,63,93,72,50,30.01,29.96,29.92,10,10,6,18,10,24,T,6,,151
2012-10-23,86,77,67,70,66,63,93,71,48,30.00,29.96,29.91,10,10,8,15,7,21,0.00,2,,150
2012-10-24,87,77,67,72,67,63,100,73,46,30.02,29.95,29.86,10,7,0,15,7,26,0.00,3,Fog,151
2012-10-25,88,75,62,72,68,56,100,72,43,29.98,29.88,29.83,10,10,10,30,9,79,0.00,5,,178
2012-10-26,62,56,50,54,47,41,89,76,62,30.25,30.13,29.98,10,9,2,23,14,29,0.36,8,Rain-Thunderstorm,356
2012-10-27,63,54,44,39,37,35,76,56,36,30.29,30.21,30.12,10,10,10,17,9,25,0.00,0,,360
2012-10-28,67,54,41,38,34,29,79,53,26,30.28,30.22,30.16,10,10,10,14,6,17,0.00,0,,351
2012-10-29,71,57,42,40,34,27,76,48,20,30.30,30.22,30.14,10,10,10,8,2,12,0.00,0,,49
2012-10-30,75,60,44,50,43,37,83,58,33,30.14,30.07,29.98,10,10,10,13,2,16,0.00,0,,190
2012-10-31,84,69,54,64,57,49,93,67,40,30.06,30.00,29.94,10,10,10,14,3,20,0.00,0,,259